IZ1GCT Weather Reports


Display with metric or nautical units.
time (UTC)temp
F
wind
direction
speed
MPH
gust
MPH
rain 1hr
in
rain 24hr
in
rain mn
in
humidity
%
barometer
mb
20260831001916 66 158 2.0 3.0 0.00 0.00 0.00 74 1020.1
20260831001415 66 142 1.0 2.0 0.00 0.00 0.00 73 1020.2
20260831000917 66 135 0.0 1.0 0.00 0.00 0.00 73 1020.1
20260831000417 66 158 2.0 3.0 0.00 0.00 0.00 72 1020.0
20260830235917 67 158 3.0 5.0 0.00 0.00 0.00 71 1020.1
20260830235416 67 135 0.0 1.0 0.00 0.00 0.00 71 1020.1
20260830234917 68 158 0.0 1.0 0.00 0.00 0.00 70 1020.2
20260830234416 68 115 2.0 3.0 0.00 0.00 0.00 71 1020.0
20260830233915 68 127 1.0 1.0 0.00 0.00 0.00 70 1020.0
20260830233415 69 155 5.0 8.0 0.00 0.00 0.00 70 1020.1
20260830232916 68 135 5.0 6.0 0.00 0.00 0.00 70 1020.0
20260830232415 69 158 5.0 6.0 0.00 0.00 0.00 70 1020.1
20260830231916 70 158 5.0 7.0 0.00 0.00 0.00 67 1020.2
20260830231416 70 154 1.0 2.0 0.00 0.00 0.00 66 1020.2
20260830230915 71 135 1.0 2.0 0.00 0.00 0.00 66 1020.4
20260830230415 71 146 1.0 3.0 0.00 0.00 0.00 65 1020.2
20260830225916 71 158 3.0 5.0 0.00 0.00 0.00 65 1020.4
20260830225416 71 140 1.0 2.0 0.00 0.00 0.00 65 1020.4
20260830224915 70 135 3.0 5.0 0.00 0.00 0.00 65 1020.4
20260830224416 71 148 2.0 3.0 0.00 0.00 0.00 66 1020.4
20260830223915 70 135 2.0 3.0 0.00 0.00 0.00 66 1020.3
20260830223417 70 135 3.0 5.0 0.00 0.00 0.00 67 1020.4
20260830222915 70 147 1.0 1.0 0.00 0.00 0.00 69 1020.4
20260830222417 69 140 3.0 6.0 0.00 0.00 0.00 70 1020.4
20260830221915 69 151 1.0 5.0 0.00 0.00 0.00 70 1020.4
20260830221417 69 135 1.0 3.0 0.00 0.00 0.00 71 1020.4
20260830220916 69 158 3.0 5.0 0.00 0.00 0.00 70 1020.4
20260830220416 69 135 1.0 2.0 0.00 0.00 0.00 70 1020.3
20260830215915 70 135 0.0 1.0 0.00 0.00 0.00 69 1020.4
20260830215417 70 135 0.0 0.0 0.00 0.00 0.00 68 1020.3
20260830214916 70 135 0.0 1.0 0.00 0.00 0.00 68 1020.3
20260830214415 70 135 1.0 2.0 0.00 0.00 0.00 68 1020.3
20260830213915 70 135 1.0 6.0 0.00 0.00 0.00 69 1020.3
20260830213416 70 151 3.0 6.0 0.00 0.00 0.00 70 1020.3
20260830212915 69 135 5.0 7.0 0.00 0.00 0.00 70 1020.3
20260830212415 69 136 3.0 3.0 0.00 0.00 0.00 71 1020.2
20260830211916 69 148 3.0 5.0 0.00 0.00 0.00 71 1020.1
20260830211416 69 152 3.0 3.0 0.00 0.00 0.00 70 1020.3
20260830210915 69 135 0.0 0.0 0.00 0.00 0.00 70 1020.1
20260830210417 70 135 0.0 0.0 0.00 0.00 0.00 69 1020.2
20260830205916 70 158 3.0 5.0 0.00 0.00 0.00 69 1020.2
20260830205415 70 142 3.0 5.0 0.00 0.00 0.00 69 1020.1
20260830204917 70 151 2.0 3.0 0.00 0.00 0.00 69 1020.1
20260830204416 70 140 0.0 1.0 0.00 0.00 0.00 69 1020.1
20260830203915 70 135 3.0 3.0 0.00 0.00 0.00 70 1020.1
20260830203415 70 152 2.0 3.0 0.00 0.00 0.00 69 1020.1
20260830202916 70 158 2.0 3.0 0.00 0.00 0.00 69 1020.2
20260830202415 70 158 2.0 3.0 0.00 0.00 0.00 69 1020.1
20260830201915 70 137 1.0 2.0 0.00 0.00 0.00 68 1020.1
20260830201416 71 135 1.0 2.0 0.00 0.00 0.00 68 1020.1
20260830200916 71 158 0.0 1.0 0.00 0.00 0.00 67 1019.9
20260830200415 71 158 0.0 1.0 0.00 0.00 0.00 67 1019.9
20260830195916 71 158 2.0 2.0 0.00 0.00 0.00 66 1019.9
20260830195415 71 158 2.0 3.0 0.00 0.00 0.00 67 1019.9
20260830194916 71 158 2.0 3.0 0.00 0.00 0.00 66 1019.9
20260830194415 71 158 2.0 3.0 0.00 0.00 0.00 66 1019.9
20260830193915 72 137 0.0 1.0 0.00 0.00 0.00 66 1019.9
20260830193416 72 158 0.0 0.0 0.00 0.00 0.00 65 1019.8
20260830192915 72 158 0.0 1.0 0.00 0.00 0.00 65 1019.7
20260830192415 72 158 0.0 0.0 0.00 0.00 0.00 65 1019.7
20260830191916 73 158 2.0 3.0 0.00 0.00 0.00 62 1019.6
20260830191415 73 135 0.0 0.0 0.00 0.00 0.00 61 1019.7
20260830190915 73 141 0.0 0.0 0.00 0.00 0.00 61 1019.6
20260830190415 73 158 0.0 1.0 0.00 0.00 0.00 60 1019.5
20260830185915 74 158 1.0 2.0 0.00 0.00 0.00 60 1019.4
20260830185415 74 148 0.0 1.0 0.00 0.00 0.00 60 1019.3
20260830184916 74 158 2.0 3.0 0.00 0.00 0.00 59 1019.3
20260830184415 75 158 0.0 1.0 0.00 0.00 0.00 58 1019.2
20260830183915 75 158 2.0 3.0 0.00 0.00 0.00 58 1019.2
20260830183416 76 158 1.0 3.0 0.00 0.00 0.00 57 1019.1
20260830182916 76 158 0.0 0.0 0.00 0.00 0.00 57 1019.0
20260830182415 76 158 1.0 2.0 0.00 0.00 0.00 56 1019.0
20260830181916 77 158 0.0 0.0 0.00 0.00 0.00 54 1018.9
20260830181415 77 158 0.0 0.0 0.00 0.00 0.00 54 1018.9
20260830180917 77 148 0.0 0.0 0.00 0.00 0.00 54 1018.8
20260830180416 77 135 0.0 0.0 0.00 0.00 0.00 55 1018.8
20260830175915 77 158 0.0 0.0 0.00 0.00 0.00 55 1018.8
20260830175415 77 158 1.0 2.0 0.00 0.00 0.00 55 1018.6
20260830174916 78 140 3.0 5.0 0.00 0.00 0.00 54 1018.6
20260830174416 78 135 3.0 6.0 0.00 0.00 0.00 53 1018.5
20260830173915 78 152 3.0 6.0 0.00 0.00 0.00 54 1018.6
20260830173415 78 81 2.0 3.0 0.00 0.00 0.00 55 1018.6
20260830172916 79 135 2.0 3.0 0.00 0.00 0.00 53 1018.6
20260830172416 79 135 2.0 3.0 0.00 0.00 0.00 53 1018.5
20260830171915 80 158 1.0 3.0 0.00 0.00 0.00 52 1018.5
20260830171416 80 144 2.0 3.0 0.00 0.00 0.00 51 1018.4
20260830170915 80 151 2.0 3.0 0.00 0.00 0.00 49 1018.4
20260830170416 81 158 2.0 3.0 0.00 0.00 0.00 49 1018.5
20260830165916 81 141 2.0 3.0 0.00 0.00 0.00 47 1018.5
20260830165415 81 158 3.0 5.0 0.00 0.00 0.00 45 1018.5
20260830164916 82 135 1.0 2.0 0.00 0.00 0.00 42 1018.6
20260830164416 82 156 5.0 6.0 0.00 0.00 0.00 41 1018.5
20260830163915 82 148 3.0 6.0 0.00 0.00 0.00 41 1018.4
20260830163416 82 140 6.0 9.0 0.00 0.00 0.00 41 1018.4
20260830162916 82 135 5.0 8.0 0.00 0.00 0.00 41 1018.3
20260830162415 82 147 2.0 3.0 0.00 0.00 0.00 41 1018.3
20260830161914 82 149 3.0 6.0 0.00 0.00 0.00 40 1018.3
20260830161416 83 135 7.0 10.0 0.00 0.00 0.00 40 1018.3
20260830160915 83 135 5.0 8.0 0.00 0.00 0.00 39 1018.2
20260830160416 85 135 2.0 6.0 0.00 0.00 0.00 40 1018.2
20260830155414 84 112 1.0 2.0 0.00 0.00 0.00 40 1018.2
20260830154914 84 147 5.0 8.0 0.00 0.00 0.00 40 1018.3
20260830154414 84 112 6.0 10.0 0.00 0.00 0.00 40 1018.3
20260830153913 84 122 8.0 12.0 0.00 0.00 0.00 40 1018.1
20260830153412 85 158 6.0 10.0 0.00 0.00 0.00 40 1018.1
20260830152914 85 148 6.0 8.0 0.00 0.00 0.00 40 1018.1
20260830152413 85 116 7.0 10.0 0.00 0.00 0.00 39 1018.2
20260830151914 86 135 6.0 10.0 0.00 0.00 0.00 38 1018.2
20260830151414 85 158 5.0 7.0 0.00 0.00 0.00 39 1018.2
20260830150913 86 114 5.0 7.0 0.00 0.00 0.00 38 1018.2
20260830150413 87 158 6.0 8.0 0.00 0.00 0.00 37 1018.2
20260830145914 87 148 7.0 15.0 0.00 0.00 0.00 38 1018.2
20260830145414 86 112 8.0 13.0 0.00 0.00 0.00 38 1018.1
20260830144913 86 122 7.0 14.0 0.00 0.00 0.00 39 1018.1
20260830144413 86 112 13.0 18.0 0.00 0.00 0.00 38 1018.1
20260830143914 86 144 7.0 9.0 0.00 0.00 0.00 38 1018.1
20260830143413 86 112 5.0 7.0 0.00 0.00 0.00 39 1018.2
20260830142912 85 128 7.0 10.0 0.00 0.00 0.00 39 1018.1
20260830142413 85 121 12.0 15.0 0.00 0.00 0.00 39 1018.1
20260830141914 85 122 10.0 14.0 0.00 0.00 0.00 39 1018.0
20260830141413 85 124 5.0 13.0 0.00 0.00 0.00 38 1018.2
20260830140913 86 132 7.0 10.0 0.00 0.00 0.00 38 1018.1
20260830140414 86 114 12.0 17.0 0.00 0.00 0.00 37 1018.2
20260830135913 85 112 5.0 6.0 0.00 0.00 0.00 40 1018.3
20260830135413 85 112 9.0 12.0 0.00 0.00 0.00 40 1018.3
20260830134914 85 118 9.0 15.0 0.00 0.00 0.00 40 1018.3
20260830134413 85 135 12.0 15.0 0.00 0.00 0.00 39 1018.4
20260830133914 86 112 7.0 10.0 0.00 0.00 0.00 40 1018.4
20260830133414 86 112 8.0 12.0 0.00 0.00 0.00 39 1018.5
20260830132914 86 112 15.0 17.0 0.00 0.00 0.00 37 1018.6
20260830132413 86 134 7.0 10.0 0.00 0.00 0.00 39 1018.6
20260830131913 85 126 7.0 10.0 0.00 0.00 0.00 40 1018.7
20260830131414 85 112 10.0 12.0 0.00 0.00 0.00 40 1018.7
20260830130913 85 158 6.0 10.0 0.00 0.00 0.00 40 1018.7
20260830130412 85 158 8.0 13.0 0.00 0.00 0.00 40 1018.7
20260830125914 84 158 12.0 15.0 0.00 0.00 0.00 40 1018.8
20260830125414 84 158 8.0 14.0 0.00 0.00 0.00 40 1018.8
20260830124913 85 122 10.0 13.0 0.00 0.00 0.00 39 1018.8
20260830124413 85 112 7.0 10.0 0.00 0.00 0.00 40 1018.7
20260830123914 84 131 7.0 10.0 0.00 0.00 0.00 40 1018.8
20260830123414 84 135 6.0 9.0 0.00 0.00 0.00 41 1018.8
20260830122913 84 150 12.0 14.0 0.00 0.00 0.00 40 1018.9
20260830122413 84 127 8.0 13.0 0.00 0.00 0.00 40 1018.9
20260830121914 85 112 7.0 10.0 0.00 0.00 0.00 40 1018.9
20260830121413 85 153 7.0 8.0 0.00 0.00 0.00 39 1018.9
20260830120912 85 135 7.0 10.0 0.00 0.00 0.00 38 1018.9
20260830120414 85 137 8.0 12.0 0.00 0.00 0.00 39 1019.0
20260830115913 85 158 6.0 9.0 0.00 0.00 0.00 38 1018.9
20260830115413 84 143 8.0 10.0 0.00 0.00 0.00 38 1019.2
20260830114914 85 147 8.0 12.0 0.00 0.00 0.00 38 1019.1
20260830114414 86 125 5.0 8.0 0.00 0.00 0.00 39 1019.1
20260830113913 85 146 3.0 6.0 0.00 0.00 0.00 39 1019.2
20260830113413 85 112 7.0 10.0 0.00 0.00 0.00 38 1019.3
20260830112913 85 140 8.0 10.0 0.00 0.00 0.00 36 1019.3
20260830112414 85 158 5.0 10.0 0.00 0.00 0.00 38 1019.2
20260830111913 85 135 5.0 8.0 0.00 0.00 0.00 38 1019.3
20260830111413 85 135 6.0 8.0 0.00 0.00 0.00 38 1019.3
20260830110914 85 135 5.0 7.0 0.00 0.00 0.00 38 1019.4
20260830110413 84 135 7.0 9.0 0.00 0.00 0.00 38 1019.5
20260830105912 85 135 6.0 8.0 0.00 0.00 0.00 38 1019.6
20260830105414 85 118 6.0 9.0 0.00 0.00 0.00 38 1019.7
20260830104913 84 146 5.0 7.0 0.00 0.00 0.00 37 1019.7
20260830104414 83 138 7.0 10.0 0.00 0.00 0.00 37 1019.7
20260830103913 83 142 7.0 8.0 0.00 0.00 0.00 38 1019.8
20260830103414 83 135 7.0 10.0 0.00 0.00 0.00 37 1019.9
20260830102914 83 131 6.0 8.0 0.00 0.00 0.00 38 1019.9
20260830102413 83 148 5.0 8.0 0.00 0.00 0.00 37 1020.0
20260830101914 83 130 9.0 10.0 0.00 0.00 0.00 36 1020.0
20260830101413 84 158 5.0 7.0 0.00 0.00 0.00 34 1020.1
20260830100913 84 158 6.0 8.0 0.00 0.00 0.00 32 1020.1
20260830100414 85 158 9.0 13.0 0.00 0.00 0.00 32 1020.2
20260830095913 84 158 5.0 6.0 0.00 0.00 0.00 31 1020.2
20260830095413 85 158 3.0 6.0 0.00 0.00 0.00 32 1020.2
20260830094914 83 158 3.0 5.0 0.00 0.00 0.00 31 1020.4
20260830094413 84 158 2.0 5.0 0.00 0.00 0.00 30 1020.4
20260830093914 85 135 3.0 5.0 0.00 0.00 0.00 29 1020.5
20260830093414 84 135 2.0 5.0 0.00 0.00 0.00 28 1020.4
20260830092913 83 158 3.0 6.0 0.00 0.00 0.00 26 1020.5
20260830092413 84 135 3.0 7.0 0.00 0.00 0.00 25 1020.5
20260830091914 84 156 2.0 3.0 0.00 0.00 0.00 25 1020.5
20260830091413 83 142 2.0 3.0 0.00 0.00 0.00 26 1020.5
20260830090913 83 135 3.0 5.0 0.00 0.00 0.00 26 1020.5
20260830090413 83 158 1.0 1.0 0.00 0.00 0.00 28 1020.5
20260830085912 83 112 1.0 1.0 0.00 0.00 0.00 28 1020.6
20260830085413 84 130 2.0 6.0 0.00 0.00 0.00 29 1020.6
20260830084914 84 117 1.0 3.0 0.00 0.00 0.00 29 1020.6
20260830084413 84 136 2.0 3.0 0.00 0.00 0.00 30 1020.7
20260830083912 84 140 0.0 1.0 0.00 0.00 0.00 30 1020.6
20260830083413 83 135 0.0 1.0 0.00 0.00 0.00 30 1020.7
20260830082914 82 139 0.0 1.0 0.00 0.00 0.00 30 1020.6
20260830082414 82 135 2.0 3.0 0.00 0.00 0.00 31 1020.7
20260830081913 81 112 1.0 1.0 0.00 0.00 0.00 32 1020.6
20260830081413 82 118 2.0 3.0 0.00 0.00 0.00 30 1020.7
20260830080913 82 135 0.0 1.0 0.00 0.00 0.00 30 1020.7
20260830080412 80 139 0.0 1.0 0.00 0.00 0.00 32 1020.7
20260830075913 80 135 2.0 3.0 0.00 0.00 0.00 32 1020.7
20260830075413 80 135 1.0 2.0 0.00 0.00 0.00 32 1020.6
20260830074912 80 135 2.0 3.0 0.00 0.00 0.00 32 1020.8
20260830074414 80 135 0.0 1.0 0.00 0.00 0.00 33 1020.7
20260830073913 79 135 1.0 3.0 0.00 0.00 0.00 33 1020.7
20260830073412 78 135 1.0 3.0 0.00 0.00 0.00 34 1020.6
20260830072913 77 135 2.0 3.0 0.00 0.00 0.00 34 1020.6
20260830072413 76 135 3.0 6.0 0.00 0.00 0.00 34 1020.7
20260830071912 76 135 3.0 6.0 0.00 0.00 0.00 34 1020.6
20260830071414 76 135 3.0 6.0 0.00 0.00 0.00 35 1020.6
20260830070913 76 135 3.0 5.0 0.00 0.00 0.00 35 1020.6
20260830070412 76 135 2.0 3.0 0.00 0.00 0.00 35 1020.6
20260830065914 75 135 1.0 2.0 0.00 0.00 0.00 38 1020.6
20260830065413 74 135 3.0 3.0 0.00 0.00 0.00 37 1020.6
20260830064913 74 135 3.0 6.0 0.00 0.00 0.00 36 1020.5
20260830064412 73 135 5.0 8.0 0.00 0.00 0.00 36 1020.5
20260830063913 73 135 3.0 5.0 0.00 0.00 0.00 38 1020.6
20260830063413 73 135 2.0 6.0 0.00 0.00 0.00 38 1020.6
20260830062912 73 135 3.0 5.0 0.00 0.00 0.00 37 1020.5
20260830062414 74 135 2.0 5.0 0.00 0.00 0.00 39 1020.6
20260830061913 72 135 1.0 1.0 0.00 0.00 0.00 41 1020.5
20260830061414 72 135 5.0 7.0 0.00 0.00 0.00 41 1020.4
20260830060914 71 135 1.0 3.0 0.00 0.00 0.00 44 1020.5
20260830060413 69 135 3.0 5.0 0.00 0.00 0.00 45 1020.5
20260830055912 69 135 1.0 3.0 0.00 0.00 0.00 47 1020.5
20260830055414 69 135 1.0 3.0 0.00 0.00 0.00 49 1020.4
20260830054913 67 152 2.0 3.0 0.00 0.00 0.00 49 1020.4
20260830054412 67 158 1.0 2.0 0.00 0.00 0.00 51 1020.3
20260830053914 65 135 3.0 7.0 0.00 0.00 0.00 51 1020.3
20260830053413 64 151 2.0 3.0 0.00 0.00 0.00 52 1020.3
20260830052912 63 135 1.0 2.0 0.00 0.00 0.00 56 1020.3
20260830052414 64 136 5.0 6.0 0.00 0.00 0.00 51 1020.3
20260830051913 65 135 5.0 7.0 0.00 0.00 0.00 50 1020.3
20260830051414 65 135 5.0 8.0 0.00 0.00 0.00 50 1020.2
20260830050914 64 135 3.0 7.0 0.00 0.00 0.00 52 1020.2
20260830050413 63 135 3.0 6.0 0.00 0.00 0.00 58 1020.3
20260830045912 63 135 1.0 1.0 0.00 0.00 0.00 57 1020.1
20260830045414 64 140 1.0 3.0 0.00 0.00 0.00 53 1020.1
20260830044913 63 135 3.0 5.0 0.00 0.00 0.00 57 1020.1
20260830044413 64 135 2.0 3.0 0.00 0.00 0.00 53 1020.1
20260830043914 64 135 1.0 3.0 0.00 0.00 0.00 52 1020.1
20260830043412 64 135 5.0 6.0 0.00 0.00 0.00 51 1020.0
20260830042914 64 135 2.0 7.0 0.00 0.00 0.00 51 1020.1
20260830042413 64 135 7.0 9.0 0.00 0.00 0.00 52 1020.1
20260830041912 64 135 1.0 3.0 0.00 0.00 0.00 53 1020.0
20260830041414 64 135 1.0 3.0 0.00 0.00 0.00 52 1020.0
20260830040913 64 135 2.0 3.0 0.00 0.00 0.00 52 1020.0
20260830040414 64 135 3.0 5.0 0.00 0.00 0.00 53 1019.9
20260830035415 65 135 2.0 3.0 0.00 0.00 0.00 50 1019.9
20260830034914 66 135 2.0 5.0 0.00 0.00 0.00 50 1019.9
20260830034415 66 135 5.0 6.0 0.00 0.00 0.00 49 1019.8
20260830033915 65 135 2.0 3.0 0.00 0.00 0.00 50 1019.8
20260830033414 65 135 6.0 8.0 0.00 0.00 0.00 51 1019.7
20260830032916 64 143 2.0 3.0 0.00 0.00 0.00 53 1019.7
20260830032415 66 154 1.0 3.0 0.00 0.00 0.00 51 1019.8
20260830031914 65 135 3.0 8.0 0.00 0.00 0.00 51 1019.7
20260830031416 64 135 2.0 6.0 0.00 0.00 0.00 56 1019.7
20260830030915 64 135 3.0 6.0 0.00 0.00 0.00 55 1019.8
20260830030414 64 152 2.0 3.0 0.00 0.00 0.00 54 1019.8
20260830025915 64 142 3.0 6.0 0.00 0.00 0.00 55 1019.7
20260830025414 63 135 2.0 3.0 0.00 0.00 0.00 62 1019.7
20260830024916 63 135 3.0 6.0 0.00 0.00 0.00 62 1019.8
20260830024415 63 135 2.0 3.0 0.00 0.00 0.00 62 1019.8
20260830023915 63 135 0.0 3.0 0.00 0.00 0.00 62 1019.7
20260830023415 63 135 2.0 3.0 0.00 0.00 0.00 62 1019.7
20260830022916 64 137 3.0 6.0 0.00 0.00 0.00 58 1019.7
20260830022415 64 135 2.0 3.0 0.00 0.00 0.00 56 1019.7
20260830021914 64 148 1.0 2.0 0.00 0.00 0.00 58 1019.7
20260830021416 63 137 2.0 3.0 0.00 0.00 0.00 59 1019.6
20260830020915 63 135 0.0 1.0 0.00 0.00 0.00 62 1019.7
20260830020415 64 158 1.0 3.0 0.00 0.00 0.00 58 1019.7
20260830015915 65 145 1.0 2.0 0.00 0.00 0.00 56 1019.7
20260830015416 66 135 2.0 3.0 0.00 0.00 0.00 54 1019.7
20260830014915 66 135 1.0 5.0 0.00 0.00 0.00 54 1019.7
20260830014414 65 135 3.0 6.0 0.00 0.00 0.00 55 1019.7
20260830013916 64 135 1.0 2.0 0.00 0.00 0.00 58 1019.6
20260830013415 64 156 1.0 3.0 0.00 0.00 0.00 58 1019.6
20260830012915 64 135 1.0 1.0 0.00 0.00 0.00 59 1019.7
20260830012414 64 144 2.0 3.0 0.00 0.00 0.00 60 1019.6
20260830011915 64 153 2.0 3.0 0.00 0.00 0.00 61 1019.6
20260830011415 64 142 1.0 2.0 0.00 0.00 0.00 61 1019.5
20260830010914 64 140 1.0 3.0 0.00 0.00 0.00 61 1019.5
20260830010416 64 158 3.0 3.0 0.00 0.00 0.00 62 1019.5
20260830005915 64 158 2.0 3.0 0.00 0.00 0.00 62 1019.5
20260830005416 64 155 1.0 2.0 0.00 0.00 0.00 62 1019.5
20260830004916 64 140 1.0 3.0 0.00 0.00 0.00 62 1019.6
20260830004417 64 158 0.0 0.0 0.00 0.00 0.00 63 1019.6
20260830003916 64 135 0.0 1.0 0.00 0.00 0.00 63 1019.6
20260830003415 63 135 2.0 5.0 0.00 0.00 0.00 69 1019.6
20260830002917 62 141 3.0 3.0 0.00 0.00 0.00 70 1019.7
20260830002416 62 158 2.0 5.0 0.00 0.00 0.00 71 1019.5